Location: Caixon
(43.4106°N, 0.0273°E)
Time: 04:35:17
(UTC+00:00)

ALOS - Pass Details

Date: 16 October 2021
Orbit: 683 x 684 km, 97.9° (Epoch: 30 November)

Event Time Altitude Azimuth Distance (km) Brightness Sun altitude
Rises 05:39:13 0° 351° (N) 3,060 5.5 -7.3°
Reaches altitude 10° 05:43:27 10° 314° (NW) 2,137 4.3 -6.5°
Maximum altitude 05:44:24 11° 302° (WNW) 2,096 4.2 -6.3°
Drops below altitude 10° 05:45:21 10° 290° (WNW) 2,134 4.2 -6.2°
Enters shadow 05:47:06 - 271° (W) 2,391 4.4 -5.9°
